SCP
0 0 0 0 0 0 0 0 0 0 0 0 0 0 0 0 0 0 0 0 0 0 0 0 0 0 0 0 0 -0 0 0 0 0 0 0 0 0 0 0 0 0 0 0 -0 -0 -0
0 0 0 0 0 0 0 0 0 0 0 0 0 0 0 0 0 0 0 0 0 0 0 0 0 0 0 0 0 0 0 0 0 0 0 0 -0 -0 0 0 0 0 0 0 -0 0 -0
0 0 0 0 0 0 0 0 0 0 0 0 0 0 0 0 0 0 0 0 0 0 0 0 0 0 0 0 0 0 0 0 0 0 0 -0 -0 0 0 0 0 0 0 0 -0 -0 0
0 0 0 0 0 0 0 0 0 0 0 0 0 0 0 0 0 0 0 0 0 0 -0 -0 0 0 0 0 0 -0 0 0 0 0 0 -0 0 0 0 0 0 0 0 0 0 -0 0
0 0 0 0 0 0 0 0 0 0 0 0 0 0 0 0 0 0 0 0 0 -0 -0 -0 0 0 0 0 0 -0 0 0 0 0 0 0 0 0 0 0 0 0 0 0 0 -0 -0
0 0 0 0 0 0 -0 -0 -0 0 0 0 0 0 0 0 0 0 0 0 0 0 -0 -0 0 0 0 -0 0 0 -0 0 0 0 0 0 0 0 0 0 0 0 0 0 0 0 0
0 0 0 0 0 0 0 -0 -0 0 0 0 -0 -0 -0 0 0 0 0 0 0 0 0 0 0 0 0 -0 0 0 0 0 0 0 0 0 0 0 0 0 0 0 0 0 0 0 0
0 0 0 0 0 0 0 0 0 0 0 0 0 0 -0 -0 0 0 0 0 0 -0 0 -0 0 0 0 -0 0 0 -0 0 0 0 0 0 0 0 0 0 0 0 0 0 0 0 0
0 0 0 0 0 0 0 0 0 0 0 0 0 0 0 -0 -0 0 0 0 0 0 0 0 -0 0 0 -0 0 -0 -0 0 0 0 0 0 0 0 0 0 0 0 0 0 0 0 0
0 0 0 0 0 0 0 0 0 0 0 0 0 0 0 -0 0 0 0 0 0 -0 0 0 0 0 0 0 0 -0 0 0 0 0 0 0 0 0 0 0 0 0 0 0 0 0 0
0 0 0 0 0 0 0 0 0 0 0 0 0 0 0 0 0 0 0 0 0 0 0 0 -0 -0 0 0 0 0 0 0 0 0 0 0 0 0 0 0 0 0 0 0 0 0 -0
0 0 0 0 0 0 0 0 0 0 0 -0 -0 -0 -0 0 0 0 0 0 0 0 0 -0 -0 -0 0 -0 0 -0 0 0 -0 0 0 0 0 0 0 0 0 -0 0 0 0 0 0
0 0 0 0 0 0 0 0 0 0 0 -0 -0 -0 0 0 -0 0 0 0 0 0 0 0 0 0 -0 -0 -0 -0 0 0 0 0 0 0 0 0 0 0 0 0 0 0 0 0 0
0 0 0 0 0 0 0 0 0 0 -0 -0 -0 -0 0 0 -0 0 0 0 0 0 0 0 0 0 0 0 0 0 0 0 0 0 0 0 0 0 0 0 0 0 0 0 0 0 0
0 0 0 0 0 0 0 0 0 -0 -0 -0 -0 -0 0 -0 -0 0 0 0 0 0 0 0 0 0 0 0 0 0 0 0 0 0 0 0 0 0 0 0 0 0 0 0 0 0 0
0 0 0 0 0 0 0 0 0 -0 -0 -0 0 -0 0 -0 -0 0 0 0 0 0 0 0 0 0 0 0 0 0 0 0 0 0 0 0 0 0 0 0 0 0 0 0 0 0 0
0 0 0 0 0 0 0 0 -0 -0 -0 0 0 0 0 -0 -0 0 0 0 0 0 0 0 0 0 0 0 0 0 0 0 0 0 0 0 0 0 -0 0 0 0 0 0 0 0 0
0 0 0 0 0 0 0 0 -0 -0 -0 -0 0 0 0 0 0 -0 0 0 0 0 0 0 0 0 0 0 0 0 0 0 0 0 0 0 -0 -0 0 0 0 0 0 0 0 0 0
0 0 0 0 0 0 0 -0 -0 -0 0 0 0 0 0 0 0 0 0 0 0 -0 0 0 0 0 0 0 0 0 0 0 -0 -0 0 0 0 0 0 0 0 0 0 0 0 0 0
0 0 0 -0 -0 0 0 -0 -0 -0 0 0 0 0 0 0 0 0 0 0 0 0 0 0 0 0 0 0 0 0 0 0 0 -0 -0 0 0 0 0 0 0 0 0 0 0 0 0
-0 0 -0 -0 0 0 0 -0 -0 -0 -0 0 0 0 0 0 0 0 0 0 0 0 0 0 0 0 0 0 0 0 0 0 0 0 0 -0 0 0 0 0 0 0 0 0 0 0 0
-0 0 -0 0 0 0 0 -0 -0 -0 -0 0 0 0 0 0 -0 0 0 0 0 0 0 0 0 0 0 0 0 0 0 0 0 0 0 0 0 0 0 0 0 0 0 0 0 0 0
-0 0 -0 0 0 0 -0 -0 -0 -0 -0 0 0 0 0 0 0 0 0 0 0 -0 -0 0 0 -0 -0 0 0 0 0 0 0 0 0 0 0 0 0 0 0 0 0 0 -0 0 0
-0 0 -0 0 0 0 -0 -0 -0 -0 0 0 0 0 0 0 0 0 0 0 0 0 0 0 0 0 0 0 0 0 0 0 0 0 0 0 0 0 0 0 0 -0 0 0 0 0 0
-0 -0 -0 0 0 0 0 -0 -0 -0 -0 0 0 0 0 0 0 0 0 0 0 0 0 0 0 0 0 0 0 0 0 0 0 0 0 0 0 0 0 0 0 0 0 0 0 0 0
0 -0 -0 0 0 0 0 -0 -0 -0 -0 0 0 0 0 0 0 0 0 0 0 0 0 0 -0 0 0 0 0 0 0 0 0 0 0 0 0 0 0 0 0 0 0 0 0 0 0
0 -0 -0 0 0 0 0 -0 -0 -0 -0 0 0 0 0 0 0 0 0 0 0 0 0 0 0 0 0 0 0 0 0 0 0 0 0 0 0 0 0 0 0 0 0 0 0 0 0
0 -0 0 0 0 0 0 0 0 0 -0 0 0 0 0 0 0 0 0 0 0 0 0 0 0 0 0 0 0 0 0 0 0 0 0 0 0 0 0 0 0 0 0 0 0 0 0
0 -0 0 0 0 0 0 0 0 0 0 0 0 0 0 0 0 0 0 0 0 0 0 0 0 0 0 0 0 0 0 0 0 0 0 0 0 0 0 0 0 -0 0 0 0 0 0
Wind_Speed_500mb
41 40 39 40 41 43 44 44 44 45 46 46 46 48 48 45 41 37 35 32 33 31 24 20 17 17 10 9 9 2 11 6 13 30 32 36 31 17 7 14 28 18 30 29 41 31 25
40 39 39 40 41 42 43 45 45 46 47 49 50 49 48 45 40 36 33 29 30 27 19 14 17 9 8 6 3 1 12 8 5 31 35 43 34 36 13 23 15 16 24 31 49 32 33
42 41 41 42 43 43 45 46 46 47 48 51 53 51 46 42 38 34 30 27 25 22 16 15 11 11 14 15 6 8 16 10 8 18 36 47 39 15 6 13 36 34 12 8 33 42 16
42 40 40 42 43 45 48 51 53 55 54 52 50 48 44 40 34 32 27 25 21 21 12 8 3 6 12 2 8 21 15 15 15 8 25 35 30 25 30 29 20 8 6 5 11 41 29
41 39 42 43 45 48 51 53 53 52 53 50 49 46 42 36 32 29 22 22 21 11 6 1 3 9 10 4 7 12 13 18 21 11 7 17 10 19 14 6 10 13 5 8 15 48 21
37 39 43 46 50 52 53 53 53 52 48 45 44 43 40 34 28 25 15 22 9 10 8 10 13 12 5 9 15 11 15 8 33 19 18 12 13 4 6 9 7 8 6 9 8 7 14
39 42 46 51 52 53 53 53 51 48 46 45 43 41 39 33 21 14 20 9 13 4 16 15 18 20 16 5 3 10 14 10 21 21 7 10 8 6 14 11 12 8 8 16 29 21 12
44 47 51 52 53 53 52 52 53 51 46 42 41 42 38 27 11 2 15 15 17 17 18 25 35 39 27 20 7 14 14 7 6 8 5 7 5 16 13 13 14 13 13 25 21 10 5
49 52 52 52 52 52 53 52 52 51 48 45 41 40 36 12 7 5 14 13 14 19 6 23 22 22 17 10 8 19 25 7 5 10 9 11 19 17 12 12 12 13 12 22 19 12 16
53 54 54 54 55 55 56 57 54 51 47 42 40 37 32 3 4 14 24 23 24 10 8 12 9 10 16 5 2 18 8 1 2 18 15 11 32 20 17 17 11 13 15 21 12 7 3
58 57 55 55 57 59 60 60 59 55 48 43 35 32 21 12 4 16 24 16 14 9 6 8 6 9 2 8 12 4 5 3 1 4 10 13 8 13 12 20 15 22 20 13 4 5 11
59 57 57 57 59 62 62 62 59 55 50 42 31 26 13 9 6 18 22 15 11 9 5 8 9 8 6 6 10 19 3 3 4 4 3 11 11 9 11 10 9 13 8 13 10 7 9
61 59 58 58 62 66 65 60 56 51 47 41 26 13 8 7 5 17 17 14 9 4 12 19 3 5 7 7 6 9 8 8 6 5 7 11 10 12 18 10 11 6 13 7 9 8 11
63 61 57 58 63 68 65 58 53 50 48 35 14 14 17 20 17 19 24 8 16 14 11 11 11 8 5 7 9 9 10 12 17 9 8 8 11 16 12 2 6 6 15 11 10 7 8
65 64 61 62 66 65 60 56 53 49 42 30 14 13 11 16 18 15 13 11 2 10 12 15 17 14 15 11 9 12 18 21 20 17 11 8 7 9 12 14 4 17 3 14 13 3 8
65 65 63 64 65 61 56 54 51 41 30 29 13 8 11 20 14 12 10 10 7 15 13 11 14 15 14 16 12 10 13 15 10 32 19 11 6 8 15 17 19 13 12 5 5 10 6
65 64 62 65 63 56 53 49 46 41 34 31 11 6 21 16 5 7 8 5 10 39 38 13 12 11 7 7 9 11 8 7 13 10 29 8 9 16 8 12 9 14 15 13 2 8 11
63 63 61 63 58 53 48 42 40 46 38 23 11 9 37 6 9 5 6 6 13 20 33 17 12 14 8 13 13 10 9 7 19 8 8 8 8 5 11 10 7 12 15 11 8 14 5
60 60 59 59 54 47 43 35 36 44 46 28 12 13 56 40 8 7 8 9 17 11 13 11 15 11 8 11 10 11 7 12 29 11 5 11 8 9 18 14 15 11 24 13 8 4 4
59 59 57 54 48 43 37 29 31 37 38 28 10 8 17 37 35 11 10 11 8 27 28 16 12 21 15 16 14 11 12 14 25 30 20 13 7 10 7 11 10 18 27 20 6 4 14
57 56 54 50 45 38 30 25 23 26 34 19 15 5 7 6 18 21 15 10 21 10 14 25 14 14 9 14 11 11 13 14 15 28 10 9 6 4 1 12 10 19 23 21 11 12 2
52 52 50 46 41 33 27 25 26 19 17 24 9 10 13 30 15 25 15 13 14 12 10 10 11 16 20 11 6 7 9 9 3 13 7 7 3 3 9 9 15 16 16 13 12 16 15
49 48 46 42 37 28 23 23 27 30 16 12 18 15 5 13 9 10 3 3 11 10 13 15 8 8 14 10 20 19 16 15 12 3 3 6 8 6 6 8 15 10 13 19 9 19 10
44 45 42 38 33 24 18 18 24 29 26 19 23 15 9 6 6 6 8 12 10 6 1 11 6 4 6 21 24 24 21 24 22 17 6 6 7 6 6 8 4 12 11 15 27 25 23
40 39 37 34 29 21 13 12 16 21 21 16 19 17 10 3 7 14 16 6 5 7 4 7 8 3 9 11 8 10 10 12 11 11 17 10 8 5 8 7 10 6 14 12 12 9 26
37 38 35 32 24 19 12 6 12 15 18 15 17 17 9 4 6 7 2 6 5 2 6 5 5 7 2 7 6 4 2 2 7 17 14 15 9 8 6 8 10 2 19 33 11 7 25
31 33 31 30 21 21 12 3 6 9 12 16 20 20 5 4 2 5 5 4 4 2 3 1 4 4 11 4 5 4 2 7 2 0 8 8 7 4 5 7 2 9 30 27 4 5 34
27 29 27 27 20 20 15 4 2 6 6 3 13 23 18 7 5 2 4 5 6 4 5 4 6 7 8 6 5 5 5 7 6 7 6 5 4 4 4 4 11 17 5 2 11 29 20
22 24 22 23 19 15 15 11 4 6 4 4 7 10 8 7 10 10 20 23 14 23 10 1 7 7 7 7 2 5 1 5 10 4 4 4 11 7 13 9 12 4 7 5 18 36 40
Wind_Direction_500mb
356 353 350 347 345 344 343 343 342 341 340 337 336 334 332 330 328 326 328 326 325 325 319 314 303 295 300 304 258 33 341 339 188 194 193 185 193 197 226 219 244 232 250 218 174 183 179
358 355 352 349 347 346 344 343 342 340 338 335 333 332 329 327 323 321 324 323 323 326 319 318 313 268 284 288 66 22 332 327 272 202 195 191 196 203 268 243 216 250 265 250 167 165 167
356 356 357 356 354 351 348 345 341 338 336 333 331 330 329 327 321 317 321 320 319 319 311 315 312 276 268 240 164 254 289 325 304 212 198 196 192 217 327 302 259 253 265 305 159 166 166
357 359 358 357 354 350 346 343 340 338 336 334 332 331 331 328 320 315 317 317 311 309 302 319 329 286 253 159 273 229 260 251 254 261 211 212 211 264 265 281 303 12 58 3 150 172 173
358 358 358 356 352 348 344 341 339 338 336 336 334 336 336 331 320 314 319 319 309 286 275 174 289 306 265 239 261 127 206 219 208 206 210 219 234 253 276 247 5 17 275 300 309 178 151
3 360 357 354 350 346 344 342 343 343 343 339 337 338 338 335 323 317 335 324 320 269 270 268 252 309 215 133 171 198 189 242 193 192 215 215 209 258 16 75 218 260 340 325 244 320 144
8 2 356 351 349 349 349 348 349 350 349 344 340 341 338 336 330 328 27 54 4 45 306 252 293 282 307 118 31 172 204 223 185 165 165 198 88 223 228 181 203 250 291 279 286 276 223
6 0 354 352 354 355 354 353 352 353 351 347 342 342 340 338 340 344 29 47 31 335 298 286 269 267 270 278 301 223 181 148 124 172 172 352 231 234 225 222 243 266 256 279 285 265 177
2 358 356 356 358 357 354 352 349 348 347 346 343 343 342 348 88 42 12 16 360 338 299 294 232 247 253 207 261 170 165 185 198 176 171 163 237 234 235 260 247 249 226 263 249 328 47
360 359 358 357 358 357 354 350 347 345 342 341 339 341 343 329 58 31 26 7 358 319 51 278 192 247 200 226 61 143 145 83 124 189 210 200 244 226 219 244 218 265 224 253 275 31 102
360 358 358 358 356 354 352 347 345 342 341 339 337 333 342 344 8 37 6 350 333 318 81 172 182 165 91 157 143 97 215 155 324 278 93 258 242 239 220 227 211 241 256 236 288 338 108
359 358 357 357 355 353 349 346 344 341 339 340 338 327 343 305 20 11 347 344 326 49 118 167 139 176 123 215 169 165 133 131 252 314 8 232 261 183 213 250 221 250 273 44 44 74 352
359 358 357 355 353 350 347 348 346 343 340 342 338 334 10 57 325 340 343 353 54 76 312 343 157 142 193 228 173 152 128 32 13 43 342 333 350 312 23 344 352 97 61 7 1 10 228
357 356 355 354 352 350 349 351 351 348 341 357 16 102 83 50 27 13 356 55 53 5 360 336 351 4 91 122 20 52 39 18 25 43 68 60 337 16 358 81 274 260 150 152 179 176 260
357 355 354 354 352 352 352 353 355 354 355 27 100 94 69 41 29 4 355 52 76 355 337 334 340 37 359 8 113 107 78 32 24 357 96 31 292 332 30 333 12 323 50 196 124 115 66
357 355 354 354 353 355 354 355 2 10 13 22 62 49 47 25 28 356 57 78 77 31 344 11 34 24 27 2 43 50 48 341 18 25 73 338 353 15 315 22 34 99 281 307 15 180 200
355 356 355 355 356 358 358 0 9 22 15 4 39 24 34 72 63 15 107 88 70 37 32 25 4 35 26 39 41 42 31 18 30 20 64 28 57 303 21 44 323 353 23 343 164 128 159
355 355 356 357 359 1 2 6 13 19 14 20 20 35 16 324 66 83 55 40 62 20 30 28 48 48 45 7 38 78 73 69 50 42 47 328 123 331 262 290 356 100 70 41 44 314 26
353 355 357 0 1 5 6 14 18 16 16 12 9 25 47 69 65 7 40 70 65 49 23 33 9 22 4 9 75 97 112 100 82 71 65 340 14 6 348 358 17 25 19 6 258 266 55
351 354 358 2 4 7 13 22 20 15 14 18 23 27 21 49 38 95 91 13 98 56 48 55 26 43 31 15 4 57 63 51 90 98 96 79 73 121 165 237 271 320 339 360 45 12 330
349 353 357 3 5 8 18 24 24 31 31 27 30 9 50 344 10 53 69 7 58 26 36 28 16 31 41 20 31 39 26 15 45 36 45 94 122 105 237 302 316 317 325 342 345 312 342
346 351 356 2 6 9 17 20 20 12 26 41 40 12 22 55 61 59 19 347 51 12 52 10 52 31 56 75 96 359 27 49 345 351 49 14 176 103 356 342 339 325 312 308 330 4 336
343 349 354 1 6 9 16 29 30 33 43 47 28 21 12 31 37 76 3 30 40 29 30 75 43 56 41 3 346 321 296 271 241 196 299 122 121 81 299 331 333 24 26 3 51 44 346
339 345 350 358 5 9 15 31 33 38 39 47 18 4 32 343 76 108 109 80 48 61 92 320 353 94 271 325 330 320 313 292 262 324 244 135 98 112 191 13 311 243 2 60 73 46 34
335 342 347 354 2 9 11 26 42 43 38 35 42 25 23 40 83 81 108 141 200 244 242 238 286 246 351 342 35 18 357 18 27 84 41 48 113 108 148 198 287 2 22 354 72 0 2
331 339 343 351 1 8 8 10 49 46 45 48 51 33 42 110 320 329 170 119 138 211 349 257 115 227 265 75 71 102 139 340 323 338 16 38 69 126 143 167 233 10 315 332 275 229 1
327 337 340 348 355 6 2 344 43 56 49 52 43 38 37 106 159 27 117 175 164 204 198 6 56 69 47 68 83 116 201 161 159 297 340 352 357 152 246 235 230 317 322 319 169 251 324
324 335 337 347 351 10 16 330 356 355 9 33 41 39 21 328 189 294 73 180 252 249 138 310 72 17 50 71 108 229 123 212 101 220 199 203 130 229 4 275 256 354 17 66 308 305 315
322 330 333 344 352 3 12 1 280 305 312 357 349 354 327 277 234 223 278 286 271 227 203 213 140 145 152 92 112 105 43 120 164 247 202 218 180 187 174 220 136 134 183 257 305 298 303
Wind_Speed_850mb
41 40 39 40 41 43 44 44 44 45 46 46 46 48 48 45 41 37 35 32 33 31 24 20 17 17 10 9 9 2 11 6 13 30 32 36 31 17 7 14 28 18 30 29 41 31 25
40 39 39 40 41 42 43 45 45 46 47 49 50 49 48 45 40 36 33 29 30 27 19 14 17 9 8 6 3 1 12 8 5 31 35 43 34 36 13 23 15 16 24 31 49 32 33
42 41 41 42 43 43 45 46 46 47 48 51 53 51 46 42 38 34 30 27 25 22 16 15 11 11 14 15 6 8 16 10 8 18 36 47 39 15 6 13 36 34 12 8 33 42 16
42 40 40 42 43 45 48 51 53 55 54 52 50 48 44 40 34 32 27 25 21 21 12 8 3 6 12 2 8 21 15 15 15 8 25 35 30 25 30 29 20 8 6 5 11 41 29
41 39 42 43 45 48 51 53 53 52 53 50 49 46 42 36 32 29 22 22 21 11 6 1 3 9 10 4 7 12 13 18 21 11 7 17 10 19 14 6 10 13 5 8 15 48 21
37 39 43 46 50 52 53 53 53 52 48 45 44 43 40 34 28 25 15 22 9 10 8 10 13 12 5 9 15 11 15 8 33 19 18 12 13 4 6 9 7 8 6 9 8 7 14
39 42 46 51 52 53 53 53 51 48 46 45 43 41 39 33 21 14 20 9 13 4 16 15 18 20 16 5 3 10 14 10 21 21 7 10 8 6 14 11 12 8 8 16 29 21 12
44 47 51 52 53 53 52 52 53 51 46 42 41 42 38 27 11 2 15 15 17 17 18 25 35 39 27 20 7 14 14 7 6 8 5 7 5 16 13 13 14 13 13 25 21 10 5
49 52 52 52 52 52 53 52 52 51 48 45 41 40 36 12 7 5 14 13 14 19 6 23 22 22 17 10 8 19 25 7 5 10 9 11 19 17 12 12 12 13 12 22 19 12 16
53 54 54 54 55 55 56 57 54 51 47 42 40 37 32 3 4 14 24 23 24 10 8 12 9 10 16 5 2 18 8 1 2 18 15 11 32 20 17 17 11 13 15 21 12 7 3
58 57 55 55 57 59 60 60 59 55 48 43 35 32 21 12 4 16 24 16 14 9 6 8 6 9 2 8 12 4 5 3 1 4 10 13 8 13 12 20 15 22 20 13 4 5 11
59 57 57 57 59 62 62 62 59 55 50 42 31 26 13 9 6 18 22 15 11 9 5 8 9 8 6 6 10 19 3 3 4 4 3 11 11 9 11 10 9 13 8 13 10 7 9
61 59 58 58 62 66 65 60 56 51 47 41 26 13 8 7 5 17 17 14 9 4 12 19 3 5 7 7 6 9 8 8 6 5 7 11 10 12 18 10 11 6 13 7 9 8 11
63 61 57 58 63 68 65 58 53 50 48 35 14 14 17 20 17 19 24 8 16 14 11 11 11 8 5 7 9 9 10 12 17 9 8 8 11 16 12 2 6 6 15 11 10 7 8
65 64 61 62 66 65 60 56 53 49 42 30 14 13 11 16 18 15 13 11 2 10 12 15 17 14 15 11 9 12 18 21 20 17 11 8 7 9 12 14 4 17 3 14 13 3 8
65 65 63 64 65 61 56 54 51 41 30 29 13 8 11 20 14 12 10 10 7 15 13 11 14 15 14 16 12 10 13 15 10 32 19 11 6 8 15 17 19 13 12 5 5 10 6
65 64 62 65 63 56 53 49 46 41 34 31 11 6 21 16 5 7 8 5 10 39 38 13 12 11 7 7 9 11 8 7 13 10 29 8 9 16 8 12 9 14 15 13 2 8 11
63 63 61 63 58 53 48 42 40 46 38 23 11 9 37 6 9 5 6 6 13 20 33 17 12 14 8 13 13 10 9 7 19 8 8 8 8 5 11 10 7 12 15 11 8 14 5
60 60 59 59 54 47 43 35 36 44 46 28 12 13 56 40 8 7 8 9 17 11 13 11 15 11 8 11 10 11 7 12 29 11 5 11 8 9 18 14 15 11 24 13 8 4 4
59 59 57 54 48 43 37 29 31 37 38 28 10 8 17 37 35 11 10 11 8 27 28 16 12 21 15 16 14 11 12 14 25 30 20 13 7 10 7 11 10 18 27 20 6 4 14
57 56 54 50 45 38 30 25 23 26 34 19 15 5 7 6 18 21 15 10 21 10 14 25 14 14 9 14 11 11 13 14 15 28 10 9 6 4 1 12 10 19 23 21 11 12 2
52 52 50 46 41 33 27 25 26 19 17 24 9 10 13 30 15 25 15 13 14 12 10 10 11 16 20 11 6 7 9 9 3 13 7 7 3 3 9 9 15 16 16 13 12 16 15
49 48 46 42 37 28 23 23 27 30 16 12 18 15 5 13 9 10 3 3 11 10 13 15 8 8 14 10 20 19 16 15 12 3 3 6 8 6 6 8 15 10 13 19 9 19 10
44 45 42 38 33 24 18 18 24 29 26 19 23 15 9 6 6 6 8 12 10 6 1 11 6 4 6 21 24 24 21 24 22 17 6 6 7 6 6 8 4 12 11 15 27 25 23
40 39 37 34 29 21 13 12 16 21 21 16 19 17 10 3 7 14 16 6 5 7 4 7 8 3 9 11 8 10 10 12 11 11 17 10 8 5 8 7 10 6 14 12 12 9 26
37 38 35 32 24 19 12 6 12 15 18 15 17 17 9 4 6 7 2 6 5 2 6 5 5 7 2 7 6 4 2 2 7 17 14 15 9 8 6 8 10 2 19 33 11 7 25
31 33 31 30 21 21 12 3 6 9 12 16 20 20 5 4 2 5 5 4 4 2 3 1 4 4 11 4 5 4 2 7 2 0 8 8 7 4 5 7 2 9 30 27 4 5 34
27 29 27 27 20 20 15 4 2 6 6 3 13 23 18 7 5 2 4 5 6 4 5 4 6 7 8 6 5 5 5 7 6 7 6 5 4 4 4 4 11 17 5 2 11 29 20
22 24 22 23 19 15 15 11 4 6 4 4 7 10 8 7 10 10 20 23 14 23 10 1 7 7 7 7 2 5 1 5 10 4 4 4 11 7 13 9 12 4 7 5 18 36 40
Wind_Direction_850mb
356 353 350 347 345 344 343 343 342 341 340 337 336 334 332 330 328 326 328 326 325 325 319 314 303 295 300 304 258 33 341 339 188 194 193 185 193 197 226 219 244 232 250 218 174 183 179
358 355 352 349 347 346 344 343 342 340 338 335 333 332 329 327 323 321 324 323 323 326 319 318 313 268 284 288 66 22 332 327 272 202 195 191 196 203 268 243 216 250 265 250 167 165 167
356 356 357 356 354 351 348 345 341 338 336 333 331 330 329 327 321 317 321 320 319 319 311 315 312 276 268 240 164 254 289 325 304 212 198 196 192 217 327 302 259 253 265 305 159 166 166
357 359 358 357 354 350 346 343 340 338 336 334 332 331 331 328 320 315 317 317 311 309 302 319 329 286 253 159 273 229 260 251 254 261 211 212 211 264 265 281 303 12 58 3 150 172 173
358 358 358 356 352 348 344 341 339 338 336 336 334 336 336 331 320 314 319 319 309 286 275 174 289 306 265 239 261 127 206 219 208 206 210 219 234 253 276 247 5 17 275 300 309 178 151
3 360 357 354 350 346 344 342 343 343 343 339 337 338 338 335 323 317 335 324 320 269 270 268 252 309 215 133 171 198 189 242 193 192 215 215 209 258 16 75 218 260 340 325 244 320 144
8 2 356 351 349 349 349 348 349 350 349 344 340 341 338 336 330 328 27 54 4 45 306 252 293 282 307 118 31 172 204 223 185 165 165 198 88 223 228 181 203 250 291 279 286 276 223
6 0 354 352 354 355 354 353 352 353 351 347 342 342 340 338 340 344 29 47 31 335 298 286 269 267 270 278 301 223 181 148 124 172 172 352 231 234 225 222 243 266 256 279 285 265 177
2 358 356 356 358 357 354 352 349 348 347 346 343 343 342 348 88 42 12 16 360 338 299 294 232 247 253 207 261 170 165 185 198 176 171 163 237 234 235 260 247 249 226 263 249 328 47
360 359 358 357 358 357 354 350 347 345 342 341 339 341 343 329 58 31 26 7 358 319 51 278 192 247 200 226 61 143 145 83 124 189 210 200 244 226 219 244 218 265 224 253 275 31 102
360 358 358 358 356 354 352 347 345 342 341 339 337 333 342 344 8 37 6 350 333 318 81 172 182 165 91 157 143 97 215 155 324 278 93 258 242 239 220 227 211 241 256 236 288 338 108
359 358 357 357 355 353 349 346 344 341 339 340 338 327 343 305 20 11 347 344 326 49 118 167 139 176 123 215 169 165 133 131 252 314 8 232 261 183 213 250 221 250 273 44 44 74 352
359 358 357 355 353 350 347 348 346 343 340 342 338 334 10 57 325 340 343 353 54 76 312 343 157 142 193 228 173 152 128 32 13 43 342 333 350 312 23 344 352 97 61 7 1 10 228
357 356 355 354 352 350 349 351 351 348 341 357 16 102 83 50 27 13 356 55 53 5 360 336 351 4 91 122 20 52 39 18 25 43 68 60 337 16 358 81 274 260 150 152 179 176 260
357 355 354 354 352 352 352 353 355 354 355 27 100 94 69 41 29 4 355 52 76 355 337 334 340 37 359 8 113 107 78 32 24 357 96 31 292 332 30 333 12 323 50 196 124 115 66
357 355 354 354 353 355 354 355 2 10 13 22 62 49 47 25 28 356 57 78 77 31 344 11 34 24 27 2 43 50 48 341 18 25 73 338 353 15 315 22 34 99 281 307 15 180 200
355 356 355 355 356 358 358 0 9 22 15 4 39 24 34 72 63 15 107 88 70 37 32 25 4 35 26 39 41 42 31 18 30 20 64 28 57 303 21 44 323 353 23 343 164 128 159
355 355 356 357 359 1 2 6 13 19 14 20 20 35 16 324 66 83 55 40 62 20 30 28 48 48 45 7 38 78 73 69 50 42 47 328 123 331 262 290 356 100 70 41 44 314 26
353 355 357 0 1 5 6 14 18 16 16 12 9 25 47 69 65 7 40 70 65 49 23 33 9 22 4 9 75 97 112 100 82 71 65 340 14 6 348 358 17 25 19 6 258 266 55
351 354 358 2 4 7 13 22 20 15 14 18 23 27 21 49 38 95 91 13 98 56 48 55 26 43 31 15 4 57 63 51 90 98 96 79 73 121 165 237 271 320 339 360 45 12 330
349 353 357 3 5 8 18 24 24 31 31 27 30 9 50 344 10 53 69 7 58 26 36 28 16 31 41 20 31 39 26 15 45 36 45 94 122 105 237 302 316 317 325 342 345 312 342
346 351 356 2 6 9 17 20 20 12 26 41 40 12 22 55 61 59 19 347 51 12 52 10 52 31 56 75 96 359 27 49 345 351 49 14 176 103 356 342 339 325 312 308 330 4 336
343 349 354 1 6 9 16 29 30 33 43 47 28 21 12 31 37 76 3 30 40 29 30 75 43 56 41 3 346 321 296 271 241 196 299 122 121 81 299 331 333 24 26 3 51 44 346
339 345 350 358 5 9 15 31 33 38 39 47 18 4 32 343 76 108 109 80 48 61 92 320 353 94 271 325 330 320 313 292 262 324 244 135 98 112 191 13 311 243 2 60 73 46 34
335 342 347 354 2 9 11 26 42 43 38 35 42 25 23 40 83 81 108 141 200 244 242 238 286 246 351 342 35 18 357 18 27 84 41 48 113 108 148 198 287 2 22 354 72 0 2
331 339 343 351 1 8 8 10 49 46 45 48 51 33 42 110 320 329 170 119 138 211 349 257 115 227 265 75 71 102 139 340 323 338 16 38 69 126 143 167 233 10 315 332 275 229 1
327 337 340 348 355 6 2 344 43 56 49 52 43 38 37 106 159 27 117 175 164 204 198 6 56 69 47 68 83 116 201 161 159 297 340 352 357 152 246 235 230 317 322 319 169 251 324
324 335 337 347 351 10 16 330 356 355 9 33 41 39 21 328 189 294 73 180 252 249 138 310 72 17 50 71 108 229 123 212 101 220 199 203 130 229 4 275 256 354 17 66 308 305 315
322 330 333 344 352 3 12 1 280 305 312 357 349 354 327 277 234 223 278 286 271 227 203 213 140 145 152 92 112 105 43 120 164 247 202 218 180 187 174 220 136 134 183 257 305 298 303